Location: Leuk
(46.3174°N, 7.6341°E)
Time: 14:39:57
(UTC+00:00)

CENTAUR R/B - Pass Details

Date: 09 March 2021
Orbit: 742 x 1446 km, 63.4° (Epoch: 31 March)

Event Time Altitude Azimuth Distance (km) Brightness Sun altitude
Rises 01:52:27 0° 318° (NW) 4,023 5.8 -39.3°
Reaches altitude 10° 01:55:16 10° 326° (NNW) 3,160 5.2 -38.9°
Maximum altitude 02:02:31 40° 34° (NE) 1,883 4.2 -38.0°
Drops below altitude 10° 02:10:35 10° 102° (ESE) 3,521 5.7 -37.0°
Sets 02:13:53 0° 109° (ESE) 4,526 6.3 -36.5°
